Location: Proctor
(47.8934°N, 114.3048°W)
Time: 11:48:46
(UTC+00:00)

Courier 1B Rocket - Pass Details

Date: 19 June 2024
Orbit: 920 x 1201 km, 28.2° (Epoch: 17 July)

Event Time Altitude Azimuth Distance (km) Brightness Sun altitude
Rises 14:01:10 0° 240° (WSW) 3,899 7.6 20.8°
Reaches altitude 10° 14:05:15 10° 218° (SW) 2,998 7.2 21.5°
Maximum altitude 14:09:09 15° 186° (S) 2,678 7.2 22.1°
Drops below altitude 10° 14:13:09 10° 154° (SSE) 3,083 7.9 22.8°
Sets 14:17:27 0° 133° (SE) 4,075 8.8 23.5°
